Flag for Germany Weather past 2 weeks in Paderborn, North Rhine-Westphalia, Germany

Now
66 °F

Scattered clouds.


Feels Like: 66 °F
Forecast: 55 / 78 °F
Wind: 6 mph from Northeast

Location: Paderborn / Lippstadt

Current Time: Jul 25, 2014 at 6:17:19 PM

Latest Report: Jul 25, 2014 at 5:20 PM


Visibility: N/A

Pressure: 29.95 "Hg

Humidity: 73%

Dew point: 57 °F

Location of PaderbornLocation

Historic Weather in Paderborn — Graph

°F

Paderborn temperature yesterday

Maximum temperature yesterday: 75 °F (at 2:20 PM)
Minimum temperature yesterday: 55 °F (at 4:50 AM)
Average temperature yesterday: 64 °F

Past Weeks' High & Low Weather Summary

 TemperatureHumidityPressure
High88 °F (Jul 19, 1:50 PM)100% (Jul 10, 10:20 PM)30.21 "Hg (Jul 10, 10:20 PM)
Low54 °F (Jul 15, 3:20 AM)27% (Jul 19, 1:20 PM)29.74 "Hg (Jul 13, 3:20 PM)
Average68 °F70%29.99 "Hg
* Reported Jul 10 4:20 PM — Jul 25 4:50 PM, Paderborn, Weather by CustomWeather, © 2014

Note: Actual official high and low records may vary slightly from our data, if they occured in-between our weather recording intervals... More about our weather records

Advertising

Paderborn weather history for previous 24 hours

 ConditionsComfort  
Time TempWeatherWind HumidityBarometerVisibility
4:50 PM
Jul 25
66 °FBroken clouds.6 mph78%29.95 "HgN/A
4:20 PM66 °FBroken clouds.5 mph78%29.95 "HgN/A
3:50 PM66 °FBroken clouds.5 mph73%29.95 "HgN/A
3:20 PM66 °FBroken clouds.3 mph78%29.98 "HgN/A
2:20 PM64 °FBroken clouds.3 mph88%29.98 "HgN/A
2:03 PM64 °FBroken clouds.3 mph88%29.98 "Hg6 mi
1:50 PM63 °FPartly sunny.3 mph94%29.98 "Hg4 mi
1:20 PM63 °FPartly sunny.5 mph94%29.98 "Hg4 mi
12:50 PM63 °FFog.6 mph94%29.98 "Hg2 mi
12:20 PM61 °FFog.6 mph94%29.98 "Hg2 mi
11:50 AM61 °FFog.3 mph94%29.98 "Hg2 mi
11:20 AM61 °FFog.2 mph94%29.98 "Hg2 mi
10:50 AM61 °FFog.3 mph94%29.98 "Hg2 mi
10:20 AM59 °FFog.3 mph100%29.98 "Hg2 mi
9:50 AM59 °FDrizzle. Fog.3 mph100%30.01 "Hg2 mi
9:20 AM59 °FFog.3 mph100%29.98 "Hg2 mi
8:50 AM59 °FFog.2 mph100%29.98 "Hg2 mi
8:20 AM59 °FLight rain. Fog.2 mph100%29.98 "Hg2 mi
7:50 AM59 °FFog.2 mph94%29.98 "Hg2 mi
7:20 AM59 °FFog.5 mph94%29.98 "Hg2 mi
6:50 AM59 °FPartly sunny.3 mph94%29.98 "HgN/A
6:20 AM59 °FPartly cloudy.3 mph94%29.98 "HgN/A
5:50 AM59 °FPassing clouds.3 mph94%29.98 "HgN/A
4:50 AM61 °FPartly cloudy.5 mph88%30.01 "HgN/A
4:20 AM59 °FPartly cloudy.3 mph94%30.01 "HgN/A
3:50 AM59 °FPartly cloudy.2 mph88%30.01 "HgN/A
3:20 AM59 °FPartly cloudy.2 mph88%30.01 "HgN/A
2:50 AM59 °FPartly cloudy.3 mph88%30.01 "HgN/A
2:20 AM61 °FClear.9 mph83%30.01 "Hg10 mi
1:50 AM59 °FPassing clouds.5 mph94%30.01 "HgN/A
1:20 AM59 °FClear.3 mph82%30.01 "Hg10 mi
12:50 AM61 °FClear.5 mph77%30.04 "Hg10 mi
12:20 AM61 °FClear.6 mph77%30.04 "Hg10 mi
11:50 PM
Jul 24
61 °FClear.7 mph77%30.04 "Hg10 mi
11:20 PM61 °FClear.13 mph72%30.04 "Hg10 mi
10:50 PM61 °FClear.10 mph72%30.04 "Hg10 mi
10:20 PM63 °FSunny.8 mph64%30.04 "Hg10 mi
9:50 PM63 °FSunny.10 mph68%30.04 "Hg10 mi
9:20 PM64 °FPassing clouds.7 mph73%30.04 "HgN/A
8:50 PM63 °FSunny.1 mph88%30.04 "Hg10 mi
8:20 PM64 °FSunny.2 mph83%30.01 "Hg10 mi
7:50 PM64 °FSunny.6 mph78%30.01 "Hg10 mi
7:20 PM64 °FSunny.7 mph78%30.01 "Hg10 mi
6:50 PM64 °FSunny.10 mph73%30.01 "Hg10 mi
6:20 PM64 °FSunny.12 mph73%30.01 "Hg10 mi
Weather by CustomWeather, © 2014

See weather overviewHow to use our weather pages